Location: Unspecified
(42.1900°N, 71.3291°W)
Time: 06:34:57
(UTC-05:00)

ISS - Visible Passes

Search period start: 25 November 2017 00:00
Search period end: 05 December 2017 00:00
Orbit: 401 x 407 km, 51.6° (Epoch: 25 November)

Date Brightness Start Highest point End Pass type
(mag) Time Alt. Az. Time Alt. Az. Time Alt. Az.
25 Nov -1.5 17:51:52 10° S 17:52:55 14° SSE 17:52:55 14° SSE visible
26 Nov -1.5 18:34:25 10° SW 18:35:44 22° SW 18:35:44 22° SW visible
27 Nov -3.1 17:42:20 10° SSW 17:45:22 35° SE 17:45:46 34° ESE visible
28 Nov -2.0 16:50:44 10° S 16:53:08 19° SE 16:55:33 10° E visible
28 Nov -2.3 18:26:08 10° WSW 18:28:22 36° W 18:28:22 36° W visible
29 Nov -3.9 17:33:39 10° SW 17:36:56 86° SE 17:38:14 34° ENE visible
30 Nov -2.1 18:18:12 10° W 18:20:41 28° NW 18:20:41 28° NW visible
01 Dec -3.0 17:25:25 10° WSW 17:28:34 44° NNW 17:30:24 21° NE visible
02 Dec -1.8 18:10:25 10° WNW 18:12:43 20° NNW 18:12:43 20° NNW visible
03 Dec -2.2 17:17:27 10° W 17:20:18 26° NNW 17:22:21 15° NNE visible
04 Dec -1.6 18:02:37 10° NW 18:04:35 16° NNW 18:04:35 16° NNW visible
